Location: Newark
(21.1200°N, 73.4000°E)
Time: 01:52:42
(UTC+00:00)

SR - Pass Details

Date: 05 February 2020
Orbit: 575 x 881 km, 66.7° (Epoch: 21 February)

Event Time Altitude Azimuth Distance (km) Brightness Sun altitude
Rises 00:36:39 0° 335° (NNW) 3,206 - -15.7°
Exits shadow 00:38:42 - 334° (NNW) 2,400 ? -15.2°
Reaches altitude 10° 00:39:09 10° 334° (NNW) 2,230 ? -15.1°
Maximum altitude 00:44:11 76° 250° (WSW) 706 ? -13.9°
Drops below altitude 10° 00:48:46 10° 164° (SSE) 2,030 ? -12.9°
Sets 00:50:57 0° 162° (SSE) 2,896 ? -12.4°
